"startDT [UTC]","vpos","CH4 [ppm]","stdev(CH4) [ppm]","CO2 [ppm]","stdev(CO2) [ppm]","H2O_reported [%]","stdev(H2O_reported)","CavityPressure [torr]","CavityTemp [C]","OutletValve","CH4_dry [ppm]","CO2_dry [ppm]","DasTemp [C]","EtalonTemp [C]","WarmBoxTemp [C]","MPVPosition","T_ECpre [C]","T_EC1 [C]","T_EC2 [C]","p_inlet [hPa]","p_in [hPa]","p_out [hPa]","T_inlet [C]","RH_inlet [%]","dwpt_inlet [C]","T_vent [C]","RH_vent [%]","dwpt_vent [C]","flow_vent [l min-1]","flow_inlet [l min-1]","dwpt_sample [C]","T_room [C]"
2013-07-11 00:00:00,0.0,1.86621,0.00056,383.897,0.049,1.0805,0.0015,140.001,45.000,31658.72773,1.88668,389.056,35.873,45.050,45.000,0.00,0.13,-272.55,-272.62,-25,585,-6,24.7,26.4,4.2,24.4,28.0,4.7,5.73,2.49,4.8,27.5
2013-07-11 00:01:00,0.0,1.86649,0.00054,383.925,0.159,1.0786,0.0012,140.000,45.000,31656.61883,1.88702,389.068,35.873,45.050,45.000,0.00,0.13,-272.55,-272.62,-25,585,-6,24.8,26.4,4.1,24.4,27.9,4.6,5.73,2.49,4.8,27.5
2013-07-11 00:02:00,0.0,1.86668,0.00043,383.984,0.054,1.0793,0.0011,140.006,45.000,31658.99704,1.88720,389.158,35.873,45.050,45.000,0.00,0.13,-272.55,-272.62,-25,585,-6,24.7,26.3,4.1,24.4,27.8,4.6,5.73,2.50,4.8,27.6
2013-07-11 00:03:00,0.0,1.86655,0.00044,383.742,0.055,1.0807,0.0038,139.999,45.000,31655.37132,1.88716,388.916,35.864,45.050,45.000,0.00,0.13,-272.55,-272.62,-25,585,-6,24.7,26.4,4.1,24.4,27.9,4.6,5.73,2.51,4.8,27.6
2013-07-11 00:04:00,0.0,1.86615,0.00049,383.688,0.089,1.0890,0.0031,139.997,45.000,31657.88499,1.88683,388.888,35.872,45.050,45.000,0.00,0.13,-272.55,-272.62,-25,585,-6,24.8,26.6,4.3,24.4,28.1,4.7,5.73,2.52,4.8,27.5
2013-07-11 00:05:00,0.0,1.86675,0.00042,383.829,0.067,1.0914,0.0022,140.001,45.000,31657.23396,1.88752,389.047,35.875,45.050,45.000,0.00,0.13,-272.55,-272.62,-25,585,-6,24.8,26.7,4.3,24.4,28.2,4.8,5.73,2.53,4.9,27.4
2013-07-11 00:06:00,0.0,1.86653,0.00050,383.737,0.128,1.0906,0.0023,139.994,45.000,31656.71264,1.88728,388.963,35.870,45.050,45.000,0.00,0.13,-272.55,-272.62,-25,585,-6,24.8,26.7,4.3,24.4,28.2,4.8,5.73,2.54,4.9,27.4
2013-07-11 00:07:00,0.0,1.86591,0.00073,383.445,0.240,1.0929,0.0014,139.997,45.000,31659.08966,1.88670,388.658,35.872,45.050,45.000,0.00,0.13,-272.55,-272.62,-25,585,-6,24.8,26.7,4.3,24.4,28.2,4.8,5.73,2.53,4.9,27.5
2013-07-11 00:08:00,0.0,1.86708,0.00073,383.684,0.162,1.0902,0.0016,139.997,45.000,31657.03546,1.88765,388.881,35.869,45.050,45.000,0.00,0.13,-272.55,-272.62,-25,585,-6,24.7,26.7,4.3,24.4,28.2,4.8,5.73,2.54,4.8,27.4
2013-07-11 00:09:00,0.0,1.86755,0.00040,383.796,0.052,1.0908,0.0021,140.004,45.000,31658.75330,1.88835,389.016,35.871,45.050,45.000,0.00,0.13,-272.55,-272.62,-25,585,-6,24.8,26.7,4.3,24.4,28.2,4.8,5.73,2.53,4.9,27.3
2013-07-11 00:10:00,0.0,1.86692,0.00056,383.398,0.291,1.0927,0.0015,139.996,45.000,31654.65126,1.88776,388.630,35.873,45.050,45.000,0.00,0.13,-272.55,-272.62,-25,585,-6,24.7,26.7,4.3,24.4,28.2,4.8,5.73,2.52,4.9,27.3
2013-07-11 00:11:00,0.0,1.86631,0.00109,383.070,0.536,1.0909,0.0026,140.001,45.000,31655.35447,1.88724,388.346,35.875,45.050,45.000,0.00,0.13,-272.55,-272.62,-25,585,-6,24.7,26.7,4.3,24.4,28.2,4.8,5.73,2.50,4.9,27.3
2013-07-11 00:12:00,0.0,1.86689,0.00058,383.269,0.211,1.0846,0.0038,139.998,45.000,31656.93466,1.88731,388.380,35.873,45.050,45.000,0.00,0.13,-272.55,-272.62,-25,585,-6,24.8,26.5,4.2,24.4,28.1,4.7,5.73,2.49,4.9,27.4
2013-07-11 00:13:00,0.0,1.86595,0.00098,382.892,0.464,1.0868,0.0022,140.003,45.000,31658.03382,1.88668,388.073,35.875,45.050,45.000,0.00,0.13,-272.55,-272.62,-25,585,-6,24.7,26.5,4.2,24.4,28.1,4.7,5.73,2.49,4.9,27.4
2013-07-11 00:14:00,0.0,1.86653,0.00056,383.133,0.228,1.0838,0.0028,140.003,45.000,31657.80040,1.88721,388.339,35.875,45.050,45.000,0.00,0.13,-272.55,-272.62,-25,585,-6,24.7,26.4,4.2,24.4,28.0,4.7,5.73,2.50,4.9,27.4
2013-07-11 00:15:00,0.0,1.86647,0.00036,383.324,0.151,1.0815,0.0021,140.001,45.000,31657.38294,1.88704,388.455,35.872,45.050,45.000,0.00,0.13,-272.56,-272.62,-25,585,-6,24.7,26.4,4.1,24.4,27.9,4.6,5.73,2.51,4.8,27.5
2013-07-11 00:16:00,0.0,1.86720,0.00037,383.537,0.129,1.0829,0.0029,140.003,45.000,31657.33935,1.88778,388.727,35.860,45.050,45.000,0.00,0.13,-272.55,-272.62,-25,585,-6,24.7,26.5,4.2,24.4,28.0,4.7,5.73,2.52,4.9,27.4
2013-07-11 00:17:00,0.0,1.86665,0.00069,383.113,0.294,1.0902,0.0019,139.996,45.000,31653.60875,1.88751,388.360,35.869,45.050,45.000,0.00,0.13,-272.55,-272.62,-25,585,-6,24.7,26.6,4.3,24.4,28.2,4.8,5.73,2.52,4.8,27.5
2013-07-11 00:18:00,0.0,1.86675,0.00128,383.062,0.358,1.0874,0.0017,139.999,45.000,31655.77699,1.88706,388.180,35.871,45.050,45.000,0.00,0.13,-272.55,-272.62,-25,585,-6,24.7,26.6,4.3,24.4,28.2,4.8,5.73,2.54,4.8,27.5
2013-07-11 00:19:00,0.0,1.86858,0.00072,383.850,0.167,1.0891,0.0025,139.999,45.000,31654.32424,1.88949,389.073,35.865,45.050,45.000,0.00,0.13,-272.55,-272.62,-25,585,-6,24.8,26.6,4.3,24.4,28.1,4.8,5.73,2.54,4.9,27.5
2013-07-11 00:20:00,0.0,1.86831,0.00055,383.605,0.181,1.0953,0.0028,140.001,45.000,31654.61198,1.88913,388.843,35.859,45.050,45.000,0.00,0.13,-272.55,-272.62,-25,585,-6,24.7,26.8,4.4,24.4,28.3,4.9,5.73,2.53,4.8,27.5
2013-07-11 00:21:00,0.0,1.86796,0.00108,383.390,0.349,1.0968,0.0020,140.000,45.000,31656.13880,1.88893,388.654,35.862,45.050,45.000,0.00,0.13,-272.55,-272.62,-25,585,-6,24.7,26.9,4.4,24.4,28.4,4.9,5.73,2.52,4.9,27.4
2013-07-11 00:22:00,0.0,1.86742,0.00124,383.089,0.471,1.0990,0.0023,139.999,45.000,31656.77953,1.88809,388.286,35.862,45.050,45.000,0.00,0.13,-272.55,-272.62,-25,585,-6,24.8,26.9,4.4,24.4,28.4,4.9,5.73,2.51,4.9,27.4
2013-07-11 00:23:00,0.0,1.86853,0.00111,383.641,0.349,1.0977,0.0024,139.999,45.000,31655.93642,1.88975,388.942,35.851,45.050,45.000,0.00,0.13,-272.55,-272.62,-25,585,-6,24.8,26.8,4.4,24.4,28.4,4.9,5.73,2.50,4.8,27.4
2013-07-11 00:24:00,0.0,1.86702,0.00067,383.041,0.165,1.0998,0.0016,140.003,45.000,31656.70926,1.88782,388.277,35.869,45.050,45.000,0.00,0.13,-272.55,-272.62,-25,585,-6,24.7,27.0,4.4,24.4,28.5,4.9,5.73,2.49,4.9,27.5
2013-07-11 00:25:00,0.0,1.86783,0.00115,383.228,0.499,1.1020,0.0018,139.997,45.000,31654.48181,1.88869,388.459,35.862,45.050,45.000,0.00,0.13,-272.55,-272.62,-25,585,-6,24.7,27.0,4.4,24.4,28.5,4.9,5.73,2.49,4.8,27.5
2013-07-11 00:26:00,0.0,1.86612,0.00131,382.934,0.308,1.0992,0.0033,140.005,45.000,31656.03227,1.88748,388.238,35.872,45.050,45.000,0.00,0.13,-272.55,-272.62,-25,585,-6,24.7,26.9,4.4,24.4,28.4,4.9,5.73,2.49,4.9,27.5
2013-07-11 00:27:00,0.0,1.86758,0.00168,383.242,0.332,1.0785,0.0070,140.002,45.000,31657.13630,1.88773,388.348,35.862,45.050,45.000,0.00,0.13,-272.55,-272.62,-25,585,-6,24.7,26.3,4.1,24.4,27.9,4.6,5.73,2.50,4.8,27.5
2013-07-11 00:28:00,0.0,1.86742,0.00104,383.365,0.172,1.0781,0.0025,139.996,45.000,31656.45789,1.88798,388.514,35.868,45.050,45.000,0.00,0.13,-272.55,-272.62,-25,585,-6,24.7,26.4,4.1,24.4,27.9,4.6,5.73,2.51,4.8,27.4
2013-07-11 00:29:00,0.0,1.86798,0.00072,383.554,0.095,1.0797,0.0031,140.008,45.000,31659.74594,1.88866,388.712,35.860,45.050,45.000,0.00,0.13,-272.55,-272.62,-25,585,-6,24.7,26.4,4.1,24.4,27.9,4.6,5.73,2.52,4.9,27.4
2013-07-11 00:30:00,0.0,1.86844,0.00063,383.583,0.135,1.0866,0.0028,140.005,45.000,31657.72306,1.88886,388.764,35.855,45.050,45.000,0.00,0.13,-272.55,-272.62,-25,585,-6,24.7,26.5,4.2,24.4,28.1,4.7,5.73,2.53,4.9,27.3
2013-07-11 00:31:00,0.0,1.86620,0.00107,383.246,0.189,1.0832,0.0042,139.999,45.000,31652.97171,1.88697,388.425,35.855,45.050,45.000,0.00,0.13,-272.55,-272.62,-25,585,-6,24.7,26.5,4.2,24.4,28.0,4.7,5.73,2.53,4.8,27.4
2013-07-11 00:32:00,0.0,1.86768,0.00061,383.573,0.130,1.0659,0.0019,139.996,45.000,31653.30091,1.88793,388.659,35.851,45.050,45.000,0.00,0.13,-272.55,-272.62,-25,585,-6,24.7,26.1,3.9,24.4,27.6,4.4,5.73,2.53,4.9,27.5
2013-07-11 00:33:00,0.0,1.86738,0.00116,383.654,0.126,1.0608,0.0037,140.001,45.000,31655.19766,1.88762,388.725,35.836,45.050,45.000,0.00,0.13,-272.55,-272.62,-25,585,-6,24.7,25.9,3.9,24.3,27.4,4.4,5.73,2.53,4.9,27.5
2013-07-11 00:34:00,0.0,1.86845,0.00020,383.842,0.037,1.0512,0.0014,139.998,45.000,31653.48926,1.88834,388.854,35.837,45.050,45.000,0.00,0.13,-272.55,-272.62,-25,585,-6,24.7,25.7,3.7,24.4,27.2,4.2,5.73,2.53,4.8,27.5
2013-07-11 00:35:00,0.0,1.86637,0.00092,383.587,0.166,1.0491,0.0039,140.000,45.000,31652.77882,1.88656,388.613,35.836,45.050,45.000,0.00,0.13,-272.56,-272.62,-25,585,-6,24.7,25.6,3.7,24.4,27.1,4.2,5.73,2.51,4.8,27.6
2013-07-11 00:36:00,0.0,1.86600,0.00018,383.641,0.045,1.0327,0.0071,140.002,45.000,31653.87890,1.88565,388.565,35.855,45.050,45.000,0.00,0.13,-272.55,-272.62,-25,585,-6,24.7,25.1,3.4,24.3,26.6,3.9,5.73,2.49,4.8,27.6
2013-07-11 00:37:00,0.0,1.86717,0.00112,384.003,0.231,1.0146,0.0048,140.005,45.000,31654.31153,1.88611,388.819,35.845,45.050,45.000,0.00,0.13,-272.55,-272.62,-25,585,-6,24.7,24.7,3.2,24.4,26.1,3.7,5.73,2.49,4.8,27.6
2013-07-11 00:38:00,0.0,1.86651,0.00117,384.091,0.078,1.0080,0.0015,140.004,45.000,31654.66988,1.88599,388.912,35.844,45.050,45.000,0.00,0.13,-272.55,-272.62,-25,585,-6,24.7,24.6,3.1,24.4,25.9,3.6,5.73,2.49,4.8,27.6
2013-07-11 00:39:00,0.0,1.86658,0.00035,384.076,0.045,1.0040,0.0025,139.996,45.000,31652.28517,1.88557,388.866,35.850,45.050,45.000,0.00,0.13,-272.55,-272.62,-25,585,-6,24.7,24.4,3.0,24.3,25.8,3.5,5.73,2.50,4.9,27.5
2013-07-11 00:40:00,0.0,1.86756,0.00135,384.209,0.077,1.0034,0.0013,139.998,45.000,31650.29179,1.88666,388.999,35.858,45.050,45.000,0.00,0.13,-272.55,-272.62,-25,585,-6,24.7,24.5,3.0,24.4,25.8,3.5,5.73,2.51,4.8,27.5
2013-07-11 00:41:00,0.0,1.86994,0.00139,384.529,0.160,1.0115,0.0031,140.001,45.000,31650.81458,1.88883,389.344,35.857,45.050,45.000,0.00,0.13,-272.55,-272.62,-25,585,-6,24.7,24.6,3.1,24.4,26.0,3.6,5.73,2.53,4.8,27.4
2013-07-11 00:42:00,0.0,1.86847,0.00105,384.370,0.145,1.0250,0.0045,139.997,45.000,31650.30223,1.88794,389.255,35.854,45.050,45.000,0.00,0.13,-272.55,-272.62,-25,585,-6,24.7,25.0,3.3,24.3,26.4,3.8,5.73,2.54,4.9,27.5
2013-07-11 00:43:00,0.0,1.86950,0.00029,384.434,0.025,1.0285,0.0030,139.993,45.000,31651.03688,1.88909,389.353,35.840,45.050,45.000,0.00,0.13,-272.55,-272.62,-25,585,-6,24.7,25.1,3.4,24.4,26.5,3.9,5.73,2.54,4.9,27.4
2013-07-11 00:44:00,0.0,1.86728,0.00063,384.163,0.078,1.0385,0.0033,139.997,45.000,31652.43255,1.88726,389.139,35.843,45.050,45.000,0.00,0.13,-272.55,-272.62,-25,585,-6,24.7,25.3,3.5,24.4,26.8,4.0,5.73,2.53,4.8,27.5
2013-07-11 00:45:00,0.0,1.86774,0.00178,384.251,0.219,1.0376,0.0019,140.001,45.000,31654.33189,1.88722,389.198,35.822,45.050,45.000,0.00,0.13,-272.55,-272.62,-25,585,-6,24.7,25.3,3.5,24.4,26.8,4.0,5.73,2.53,4.8,27.4
2013-07-11 00:46:00,0.0,1.86759,0.00076,384.208,0.105,1.0405,0.0040,140.002,45.000,31652.21008,1.88752,389.185,35.823,45.050,45.000,0.00,0.13,-272.55,-272.62,-25,585,-6,24.7,25.4,3.6,24.4,26.8,4.0,5.73,2.52,4.8,27.3
2013-07-11 00:47:00,0.0,1.86752,0.00096,384.216,0.097,1.0446,0.0009,140.001,45.000,31651.55184,1.88721,389.198,35.833,45.050,45.000,0.00,0.13,-272.55,-272.61,-25,585,-6,24.7,25.5,3.6,24.3,27.0,4.1,5.73,2.51,4.8,27.4
2013-07-11 00:48:00,0.0,1.86965,0.00185,384.416,0.154,1.0457,0.0020,139.998,45.000,31651.46335,1.88934,389.407,35.842,45.051,45.000,0.00,0.13,-272.55,-272.62,-25,585,-6,24.7,25.5,3.6,24.3,27.0,4.1,5.73,2.50,4.8,27.4
2013-07-11 00:49:00,0.0,1.86854,0.00113,384.263,0.140,1.0516,0.0032,140.000,45.000,31650.89162,1.88869,389.307,35.830,45.050,45.000,0.00,0.13,-272.55,-272.62,-25,585,-6,24.7,25.7,3.7,24.3,27.2,4.2,5.73,2.49,4.8,27.5
2013-07-11 00:50:00,0.0,1.86842,0.00046,384.218,0.038,1.0590,0.0012,140.001,45.000,31651.41052,1.88868,389.279,35.823,45.050,45.000,0.00,0.13,-272.55,-272.62,-25,585,-6,24.7,25.9,3.8,24.3,27.4,4.3,5.73,2.49,4.8,27.5
2013-07-11 00:51:00,0.0,1.86712,0.00071,384.016,0.068,1.0617,0.0014,139.995,45.000,31650.38188,1.88747,389.103,35.824,45.050,45.000,0.00,0.13,-272.55,-272.62,-25,585,-6,24.7,26.0,3.9,24.3,27.5,4.4,5.73,2.50,4.8,27.5
2013-07-11 00:52:00,0.0,1.86749,0.00128,384.020,0.158,1.0645,0.0022,139.997,45.000,31648.93133,1.88731,389.080,35.814,45.050,45.000,0.00,0.13,-272.55,-272.62,-25,585,-6,24.7,26.0,3.9,24.3,27.6,4.4,5.73,2.51,4.8,27.4
2013-07-11 00:53:00,0.0,1.87087,0.00091,384.502,0.078,1.0605,0.0022,139.999,45.000,31648.60097,1.89095,389.573,35.816,45.050,45.000,0.00,0.13,-272.55,-272.62,-25,585,-6,24.7,26.0,3.9,24.3,27.5,4.4,5.73,2.52,4.8,27.4
2013-07-11 00:54:00,0.0,1.87066,0.00055,384.442,0.066,1.0676,0.0031,140.002,45.000,31652.22269,1.89115,389.557,35.818,45.050,45.000,0.00,0.13,-272.55,-272.62,-25,585,-6,24.7,26.1,4.0,24.3,27.6,4.4,5.73,2.53,4.8,27.4
2013-07-11 00:55:00,0.0,1.86923,0.00072,384.181,0.135,1.0740,0.0035,140.002,45.000,31650.27433,1.88971,389.323,35.819,45.050,45.000,0.00,0.13,-272.55,-272.62,-25,585,-6,24.7,26.4,4.1,24.3,27.9,4.6,5.73,2.54,4.8,27.4
2013-07-11 00:56:00,0.0,1.87042,0.00038,384.393,0.037,1.0823,0.0024,140.001,45.000,31652.63194,1.89093,389.560,35.813,45.050,45.000,0.00,0.13,-272.55,-272.62,-25,585,-6,24.7,26.5,4.2,24.3,28.1,4.7,5.73,2.54,4.8,27.5
2013-07-11 00:57:00,0.0,1.87058,0.00075,384.389,0.109,1.0858,0.0023,139.998,45.000,31651.71211,1.89142,389.599,35.820,45.050,45.000,0.00,0.13,-272.55,-272.62,-25,585,-6,24.7,26.6,4.2,24.3,28.2,4.7,5.73,2.53,4.8,27.5
2013-07-11 00:58:00,0.0,1.86938,0.00046,384.176,0.139,1.0875,0.0014,139.999,45.000,31651.18507,1.89004,389.378,35.816,45.050,45.000,0.00,0.13,-272.55,-272.62,-25,585,-6,24.7,26.6,4.3,24.3,28.2,4.8,5.73,2.52,4.8,27.5
2013-07-11 00:59:00,0.0,1.86916,0.00033,384.013,0.101,1.0879,0.0017,140.004,45.000,31653.59299,1.88996,389.233,35.814,45.050,45.000,0.00,0.13,-272.56,-272.62,-25,585,-6,24.7,26.7,4.3,24.4,28.2,4.8,5.73,2.52,4.8,27.4
2013-07-11 01:00:00,0.0,1.86923,0.00026,383.761,0.089,1.0884,0.0029,140.001,45.000,31652.21479,1.88997,388.967,35.813,45.050,45.000,0.00,0.13,-272.55,-272.62,-25,585,-6,24.7,26.7,4.3,24.3,28.3,4.8,5.73,2.50,4.8,27.4
2013-07-11 01:01:00,0.0,1.86907,0.00055,383.916,0.046,1.0911,0.0028,140.000,45.000,31652.12949,1.88975,389.130,35.816,45.050,45.000,0.00,0.13,-272.55,-272.62,-25,585,-6,24.7,26.8,4.3,24.4,28.3,4.8,5.73,2.50,4.8,27.4
2013-07-11 01:02:00,0.0,1.87000,0.00032,383.984,0.046,1.0869,0.0034,140.008,45.000,31653.26668,1.89074,389.185,35.813,45.050,45.000,0.00,0.13,-272.55,-272.62,-25,585,-6,24.7,26.6,4.3,24.3,28.2,4.7,5.73,2.50,4.8,27.4
2013-07-11 01:03:00,0.0,1.87008,0.00057,384.160,0.102,1.0801,0.0026,139.993,45.000,31648.49254,1.89054,389.316,35.813,45.050,45.000,0.00,0.13,-272.55,-272.62,-25,585,-6,24.7,26.5,4.2,24.3,28.0,4.6,5.73,2.49,4.8,27.4
2013-07-11 01:04:00,0.0,1.87053,0.00069,384.172,0.070,1.0769,0.0019,139.997,45.000,31650.30482,1.89104,389.330,35.813,45.050,45.000,0.00,0.13,-272.55,-272.62,-25,585,-6,24.7,26.4,4.1,24.4,27.9,4.6,5.73,2.50,4.8,27.4
2013-07-11 01:05:00,0.0,1.87086,0.00034,384.126,0.059,1.0779,0.0021,140.000,45.000,31650.41960,1.89143,389.274,35.813,45.050,45.000,0.00,0.13,-272.55,-272.62,-25,585,-6,24.7,26.4,4.1,24.3,27.9,4.6,5.73,2.51,4.8,27.5
2013-07-11 01:06:00,0.0,1.87053,0.00037,384.169,0.044,1.0804,0.0019,140.003,45.000,31653.20381,1.89116,389.345,35.813,45.050,45.000,0.00,0.13,-272.55,-272.62,-25,585,-6,24.7,26.5,4.2,24.3,28.0,4.6,5.73,2.52,4.8,27.4
2013-07-11 01:07:00,0.0,1.87091,0.00030,384.180,0.033,1.0825,0.0011,139.999,45.000,31649.96098,1.89150,389.355,35.813,45.050,45.000,0.00,0.13,-272.55,-272.62,-25,585,-6,24.7,26.5,4.2,24.3,28.0,4.7,5.73,2.53,4.8,27.5
2013-07-11 01:08:00,0.0,1.87094,0.00046,384.207,0.038,1.0823,0.0017,139.999,45.000,31650.83450,1.89160,389.383,35.813,45.050,45.000,0.00,0.13,-272.55,-272.62,-25,585,-6,24.7,26.6,4.2,24.3,28.1,4.7,5.73,2.54,4.8,27.4
2013-07-11 01:09:00,0.0,1.87084,0.00028,384.199,0.023,1.0843,0.0024,139.997,45.000,31650.37363,1.89149,389.390,35.813,45.050,45.000,0.00,0.13,-272.55,-272.62,-25,585,-6,24.7,26.6,4.2,24.3,28.2,4.7,5.73,2.53,4.8,27.4
2013-07-11 01:10:00,0.0,1.87090,0.00042,384.063,0.033,1.0861,0.0025,139.999,45.000,31651.35491,1.89158,389.269,35.808,45.050,45.000,0.00,0.13,-272.55,-272.62,-25,585,-6,24.7,26.7,4.2,24.3,28.2,4.7,5.73,2.53,4.8,27.3
2013-07-11 01:11:00,0.0,1.87099,0.00024,384.075,0.033,1.0873,0.0018,139.997,45.000,31651.31207,1.89175,389.269,35.812,45.050,45.000,0.00,0.13,-272.55,-272.62,-25,585,-6,24.7,26.7,4.3,24.3,28.3,4.8,5.73,2.53,4.8,27.3
2013-07-11 01:12:00,0.0,1.87069,0.00032,384.168,0.032,1.0918,0.0013,140.002,45.000,31651.39904,1.89153,389.392,35.813,45.050,45.000,0.00,0.13,-272.56,-272.62,-25,585,-6,24.7,26.8,4.3,24.3,28.4,4.8,5.73,2.51,4.8,27.4
2013-07-11 01:13:00,0.0,1.86974,0.00028,384.502,0.200,1.0952,0.0023,140.000,45.000,31652.31083,1.89068,389.716,35.812,45.050,45.000,0.00,0.13,-272.55,-272.62,-25,585,-6,24.7,26.9,4.4,24.3,28.4,4.9,5.73,2.50,4.8,27.4
2013-07-11 01:14:00,0.0,1.87015,0.00031,384.856,0.121,1.0944,0.0016,140.003,45.000,31651.43643,1.89101,390.098,35.813,45.050,45.000,0.00,0.13,-272.55,-272.62,-25,585,-6,24.7,26.9,4.4,24.3,28.5,4.9,5.73,2.49,4.8,27.4
2013-07-11 01:15:00,0.0,1.86912,0.00042,384.665,0.182,1.0988,0.0019,139.996,45.000,31650.72274,1.89010,389.952,35.812,45.050,45.000,0.00,0.13,-272.55,-272.62,-25,585,-6,24.7,27.0,4.4,24.3,28.5,4.9,5.73,2.49,4.8,27.4
2013-07-11 01:16:00,0.0,1.86927,0.00025,384.648,0.064,1.1028,0.0019,140.001,45.000,31651.08327,1.89031,389.919,35.813,45.050,45.000,0.00,0.13,-272.55,-272.62,-25,585,-6,24.7,27.1,4.5,24.3,28.7,5.0,5.73,2.50,4.8,27.5
2013-07-11 01:17:00,0.0,1.86931,0.00025,384.997,0.076,1.1091,0.0020,140.001,45.000,31653.49298,1.89049,390.308,35.809,45.050,45.000,0.00,0.13,-272.55,-272.62,-25,585,-6,24.7,27.3,4.6,24.3,28.8,5.1,5.73,2.51,4.8,27.4
2013-07-11 01:18:00,0.0,1.86856,0.00060,384.586,0.430,1.1139,0.0012,139.998,45.000,31652.59912,1.88980,389.972,35.812,45.050,45.000,0.00,0.13,-272.55,-272.62,-25,585,-6,24.7,27.4,4.6,24.3,29.0,5.1,5.73,2.52,4.8,27.4
2013-07-11 01:19:00,0.0,1.86854,0.00039,384.127,0.052,1.1154,0.0018,140.003,45.000,31653.66738,1.88981,389.456,35.812,45.050,45.000,0.00,0.13,-272.55,-272.62,-25,585,-6,24.7,27.5,4.7,24.3,29.0,5.2,5.73,2.53,4.8,27.4
2013-07-11 01:20:00,0.0,1.86848,0.00025,384.238,0.035,1.1154,0.0009,139.993,45.000,31653.16001,1.88973,389.579,35.813,45.050,45.000,0.00,0.13,-272.55,-272.62,-25,585,-6,24.7,27.4,4.6,24.3,29.0,5.1,5.73,2.53,4.8,27.4
2013-07-11 01:21:00,0.0,1.86882,0.00033,384.284,0.039,1.1104,0.0017,140.001,45.000,31655.94518,1.88996,389.608,35.813,45.050,45.000,0.00,0.13,-272.55,-272.62,-25,585,-6,24.7,27.3,4.6,24.3,28.9,5.1,5.73,2.53,4.8,27.4
2013-07-11 01:22:00,0.0,1.86896,0.00037,384.342,0.061,1.1070,0.0021,139.994,45.000,31653.15532,1.89014,389.640,35.808,45.050,45.000,0.00,0.13,-272.55,-272.62,-25,585,-6,24.7,27.2,4.5,24.4,28.7,5.0,5.73,2.54,4.8,27.4
2013-07-11 01:23:00,0.0,1.86933,0.00049,384.288,0.063,1.1008,0.0023,139.998,45.000,31654.16606,1.89021,389.572,35.813,45.050,45.000,0.00,0.13,-272.55,-272.62,-25,585,-6,24.7,27.1,4.5,24.3,28.6,4.9,5.73,2.53,4.8,27.4
2013-07-11 01:24:00,0.0,1.86916,0.00031,384.287,0.053,1.0994,0.0017,139.999,45.000,31653.74794,1.89013,389.545,35.813,45.050,45.000,0.00,0.13,-272.55,-272.62,-25,585,-6,24.7,27.0,4.4,24.3,28.6,4.9,5.73,2.51,4.8,27.5
2013-07-11 01:25:00,0.0,1.86913,0.00027,384.512,0.186,1.0971,0.0025,140.001,45.000,31653.28164,1.89004,389.741,35.813,45.050,45.000,0.00,0.13,-272.55,-272.62,-25,585,-6,24.7,27.0,4.4,24.3,28.5,4.9,5.73,2.51,4.8,27.5
2013-07-11 01:26:00,0.0,1.86873,0.00030,384.573,0.166,1.0955,0.0021,139.994,45.000,31653.86971,1.88967,389.851,35.813,45.050,45.000,0.00,0.13,-272.55,-272.62,-25,585,-6,24.7,26.9,4.4,24.3,28.5,4.8,5.73,2.50,4.8,27.3
2013-07-11 01:27:00,0.0,1.86855,0.00035,384.351,0.127,1.0962,0.0022,140.003,45.000,31655.64461,1.88942,389.582,35.813,45.050,45.000,0.00,0.13,-272.55,-272.62,-25,585,-6,24.7,26.9,4.4,24.3,28.5,4.9,5.73,2.49,4.8,27.3
2013-07-11 01:28:00,0.0,1.86999,0.00097,385.767,0.565,1.0991,0.0014,140.006,45.000,31655.86221,1.89068,390.935,35.813,45.050,45.000,0.00,0.13,-272.55,-272.62,-25,585,-6,24.7,27.0,4.4,24.3,28.6,4.9,5.73,2.49,4.8,27.5
2013-07-11 01:29:00,0.0,1.87112,0.00053,386.301,0.175,1.1050,0.0017,140.002,45.000,31654.18509,1.89216,391.632,35.813,45.050,45.000,0.00,0.13,-272.55,-272.62,-25,585,-6,24.7,27.2,4.5,24.3,28.7,5.0,5.73,2.50,4.8,27.5
2013-07-11 01:30:00,0.0,1.87093,0.00026,386.309,0.052,1.1123,0.0040,140.000,45.000,31654.93743,1.89221,391.671,35.810,45.050,45.000,0.00,0.13,-272.55,-272.62,-25,585,-6,24.7,27.4,4.6,24.3,29.0,5.1,5.73,2.50,4.8,27.4
2013-07-11 01:31:00,0.0,1.87076,0.00031,386.259,0.050,1.1209,0.0025,139.998,45.000,31654.42443,1.89217,391.660,35.810,45.050,45.000,0.00,0.13,-272.55,-272.62,-25,585,-6,24.7,27.6,4.7,24.3,29.2,5.2,5.73,2.52,4.8,27.6
2013-07-11 01:32:00,0.0,1.87087,0.00018,386.233,0.088,1.1287,0.0032,140.000,45.000,31654.17186,1.89238,391.673,35.810,45.050,45.000,0.00,0.13,-272.55,-272.62,-25,585,-6,24.7,27.9,4.8,24.3,29.5,5.3,5.73,2.53,4.8,27.5
2013-07-11 01:33:00,0.0,1.87061,0.00023,386.045,0.030,1.1355,0.0032,140.002,45.000,31655.61306,1.89231,391.514,35.808,45.050,45.000,0.00,0.13,-272.55,-272.62,-25,585,-6,24.6,28.0,4.9,24.3,29.6,5.4,5.73,2.53,4.8,27.5
2013-07-11 01:34:00,0.0,1.87085,0.00022,385.964,0.050,1.1404,0.0020,140.001,45.000,31656.96438,1.89265,391.463,35.807,45.050,45.000,0.00,0.13,-272.55,-272.62,-25,585,-6,24.7,28.2,5.0,24.3,29.8,5.5,5.73,2.54,4.8,27.4
2013-07-11 01:35:00,0.0,1.87047,0.00018,386.143,0.054,1.1444,0.0025,140.003,45.000,31659.10784,1.89228,391.645,35.809,45.050,45.000,0.00,0.13,-272.55,-272.62,-25,585,-6,24.7,28.3,5.1,24.3,29.9,5.6,5.73,2.53,4.8,27.4
2013-07-11 01:36:00,0.0,1.87055,0.00025,386.245,0.107,1.1493,0.0030,139.999,45.000,31653.34845,1.89250,391.771,35.812,45.050,45.000,0.00,0.13,-272.56,-272.62,-25,585,-6,24.7,28.3,5.1,24.4,30.0,5.7,5.73,2.53,4.8,27.4
2013-07-11 01:37:00,0.0,1.87062,0.00036,386.181,0.109,1.1524,0.0021,139.998,45.000,31654.17857,1.89261,391.745,35.807,45.050,45.000,0.00,0.13,-272.55,-272.62,-25,585,-6,24.7,28.5,5.2,24.3,30.1,5.7,5.73,2.52,4.8,27.4
2013-07-11 01:38:00,0.0,1.87015,0.00018,386.118,0.046,1.1555,0.0019,140.000,45.000,31654.16320,1.89230,391.698,35.800,45.050,45.000,0.00,0.13,-272.55,-272.62,-25,585,-6,24.7,28.6,5.2,24.3,30.2,5.7,5.73,2.51,4.8,27.3
2013-07-11 01:39:00,0.0,1.87036,0.00052,386.121,0.039,1.1624,0.0022,140.000,45.000,31657.64182,1.89258,391.720,35.812,45.050,45.000,0.00,0.13,-272.55,-272.62,-25,585,-6,24.6,28.7,5.3,24.3,30.4,5.8,5.73,2.50,4.8,27.4
2013-07-11 01:40:00,0.0,1.87025,0.00029,386.187,0.225,1.1638,0.0012,140.001,45.000,31657.15067,1.89249,391.771,35.800,45.050,45.000,0.00,0.13,-272.55,-272.62,-25,585,-6,24.6,28.8,5.3,24.3,30.4,5.8,5.73,2.49,4.8,27.4
2013-07-11 01:41:00,0.0,1.86994,0.00043,386.581,0.102,1.1674,0.0030,140.002,45.000,31653.83393,1.89225,392.219,35.807,45.050,45.000,0.00,0.13,-272.55,-272.62,-25,585,-6,24.7,28.9,5.4,24.3,30.5,5.9,5.73,2.49,4.8,27.3
2013-07-11 01:42:00,0.0,1.86974,0.00028,386.462,0.193,1.1712,0.0011,140.004,45.000,31655.58743,1.89212,392.101,35.803,45.050,45.000,0.00,0.13,-272.55,-272.62,-25,585,-6,24.6,29.0,5.4,24.3,30.6,5.9,5.73,2.50,4.8,27.4
2013-07-11 01:43:00,0.0,1.86926,0.00053,386.793,0.410,1.1756,0.0026,139.997,45.000,31653.42256,1.89172,392.475,35.809,45.050,45.000,0.00,0.13,-272.55,-272.62,-25,585,-6,24.6,29.1,5.5,24.2,30.8,5.9,5.73,2.51,4.8,27.3
2013-07-11 01:44:00,0.0,1.87027,0.00029,386.419,0.124,1.1805,0.0024,140.002,45.000,31655.27524,1.89277,392.149,35.806,45.050,45.000,0.00,0.13,-272.55,-272.62,-25,585,-6,24.6,29.2,5.5,24.3,30.9,6.0,5.73,2.51,4.8,27.3
2013-07-11 01:45:00,0.0,1.86897,0.00057,387.494,0.619,1.1835,0.0024,139.993,45.000,31652.75904,1.89184,393.122,35.804,45.050,45.000,0.00,0.13,-272.55,-272.62,-25,585,-6,24.6,29.3,5.6,24.3,31.0,6.1,5.73,2.52,4.8,27.4
2013-07-11 01:46:00,0.0,1.86815,0.00031,387.768,0.081,1.1874,0.0011,140.000,45.000,31656.18932,1.89084,393.549,35.812,45.050,45.000,0.00,0.13,-272.55,-272.62,-25,585,-6,24.6,29.5,5.6,24.3,31.1,6.1,5.73,2.52,4.8,27.4
2013-07-11 01:47:00,0.0,1.86809,0.00033,387.687,0.070,1.1913,0.0024,140.002,45.000,31656.42799,1.89083,393.456,35.810,45.050,45.000,0.00,0.13,-272.55,-272.62,-25,585,-6,24.6,29.5,5.7,24.3,31.2,6.2,5.73,2.53,4.8,27.5